Home   Weather   Bruck an der Leitha   Past weeks

Flag for Austria Past Weather in Bruck an der Leitha, Lower Austria, Austria — Yesterday and Last 2 Weeks

Now
57 °F

Scattered clouds.


Feels Like: 56 °F
Forecast: 40 / 60 °F
Wind: 6 mph from Southeast

Location: Wien / Schwechat-Flughafen

Current Time: Apr 30, 2017 at 3:08:13 pm

Latest Report: Apr 30, 2017 at 2:00 pm


Visibility: 19 mi

Pressure: 30.07 "Hg

Humidity: 49%

Dew Point: 37 °F

Location of Bruck an der LeithaLocation

Past Weather in Bruck an der Leitha — Graph

°F

Bruck an der Leitha Temperature Yesterday

Maximum temperature yesterday: 57 °F (at 4:00 pm)
Minimum temperature yesterday: 38 °F (at 6:00 am)
Average temperature yesterday: 47 °F

High & Low Weather Summary for the Past Weeks

 TemperatureHumidityPressure
High71 °F (Apr 25, 3:00 pm)100% (Apr 19, 6:00 pm)30.50 "Hg (Apr 19, 6:00 pm)
Low32 °F (Apr 19, 6:00 pm)39% (Apr 23, 1:00 pm)29.65 "Hg (Apr 25, 7:00 pm)
Average46 °F71%30.03 "Hg
* Reported Apr 15 1:00 pm — Apr 30 1:00 pm, Bruck an der Leitha, Weather by CustomWeather, © 2017

Note: Actual official high and low records may vary slightly from our data, if they occured in-between our weather recording intervals... More about our weather records

Advertising

Bruck an der Leitha Weather History for the Previous 24 Hours

Scroll right to see more
 ConditionsComfort  
Time TempWeatherWind HumidityBarometerVisibility
1:00 pm
Sun, Apr 30
57 °FScattered clouds.5 mph49%30.08 "Hg16 mi
12:00 pm56 °FPassing clouds.N/A53%30.09 "Hg19 mi
11:00 am53 °FPassing clouds.N/A63%30.11 "Hg14 mi
10:00 am50 °FSunny.N/A71%30.12 "Hg9 mi
9:00 am47 °FSunny.N/A75%30.13 "Hg7 mi
8:00 am43 °FSunny.N/A79%30.13 "Hg6 mi
7:00 am36 °FSunny.N/A91%30.14 "Hg7 mi
6:00 am34 °FSunny.N/A96%30.13 "Hg8 mi
5:00 am35 °FClear.N/A95%30.12 "Hg8 mi
4:00 am35 °FClear.N/A94%30.11 "Hg9 mi
3:00 am39 °FPassing clouds.N/A87%30.11 "Hg11 mi
2:00 am38 °FPassing clouds.N/A87%30.11 "Hg9 mi
1:00 am45 °FPassing clouds.3 mph72%30.10 "Hg16 mi
12:00 am46 °FOvercast.N/A71%30.09 "Hg25 mi
11:00 pm
Sat, Apr 29
47 °FPassing clouds.N/A68%30.09 "Hg25 mi
10:00 pm47 °FPassing clouds.N/A66%30.09 "Hg28 mi
9:00 pm49 °FPassing clouds.5 mph62%30.08 "Hg28 mi
8:00 pm51 °FScattered clouds.N/A62%30.06 "Hg28 mi
7:00 pm53 °FScattered clouds.N/A55%30.05 "Hg19 mi
6:00 pm52 °FOvercast.6 mph64%30.06 "Hg22 mi
5:00 pm54 °FOvercast.5 mph49%30.05 "Hg22 mi
4:00 pm57 °FPartly sunny.6 mph49%30.04 "Hg19 mi
3:00 pm56 °FPartly sunny.5 mph48%30.04 "Hg16 mi
Weather by CustomWeather, © 2017

See weather overviewHow to use our weather pages